Time,TemperatureF,DewpointF,PressureIn,WindDirection,WindDirectionDegrees,WindSpeedMPH,WindSpeedGustMPH,Humidity,HourlyPrecipIn,Conditions,Clouds,dailyrainin,SoftwareType,DateUTC
2013-02-09 00:00:00,53.5,0.0,30.07,NNW,338,0.0,2.0,0,0.00,,---,0.00,VWS V14.01,2013-02-09 05:00:00,
2013-02-09 00:05:00,53.3,0.0,30.07,NNW,338,0.0,1.0,0,0.00,,---,0.00,VWS V14.01,2013-02-09 05:05:00,
2013-02-09 00:10:00,53.1,0.0,30.07,NNW,338,0.0,2.0,0,0.00,,---,0.00,VWS V14.01,2013-02-09 05:10:00,
2013-02-09 00:15:00,52.8,0.0,30.07,NNW,338,0.0,2.0,0,0.00,,---,0.00,VWS V14.01,2013-02-09 05:15:00,
2013-02-09 00:20:00,52.5,0.0,30.07,NNW,338,0.0,2.0,0,0.00,,---,0.00,VWS V14.01,2013-02-09 05:20:00,
2013-02-09 00:25:00,52.3,0.0,30.07,NNW,338,0.0,2.0,0,0.00,,---,0.00,VWS V14.01,2013-02-09 05:25:00,
2013-02-09 00:30:00,52.1,0.0,30.07,NNW,338,0.0,2.0,0,0.00,,---,0.00,VWS V14.01,2013-02-09 05:30:00,
2013-02-09 00:35:00,51.8,0.0,30.07,NNW,338,0.0,0.0,0,0.00,,---,0.00,VWS V14.01,2013-02-09 05:35:00,
2013-02-09 00:40:00,51.4,0.0,30.07,NNW,338,0.0,0.0,0,0.00,,---,0.00,VWS V14.01,2013-02-09 05:40:00,
2013-02-09 00:45:00,51.2,0.0,30.07,NNW,338,0.0,0.0,0,0.00,,---,0.00,VWS V14.01,2013-02-09 05:45:00,
2013-02-09 00:50:00,51.0,0.0,30.07,NNW,338,0.0,0.0,0,0.00,,---,0.00,VWS V14.01,2013-02-09 05:50:00,
2013-02-09 00:55:00,50.9,0.0,30.07,NNW,338,0.0,0.0,0,0.00,,---,0.00,VWS V14.01,2013-02-09 05:55:00,
2013-02-09 01:00:00,50.7,0.0,30.07,NNW,338,0.0,0.0,0,0.00,,---,0.00,VWS V14.01,2013-02-09 06:00:00,
2013-02-09 01:05:00,50.6,0.0,30.07,NNW,338,0.0,0.0,0,0.00,,---,0.00,VWS V14.01,2013-02-09 06:05:00,
2013-02-09 01:10:00,50.4,0.0,30.08,NNW,338,0.0,0.0,0,0.00,,---,0.00,VWS V14.01,2013-02-09 06:10:00,
2013-02-09 01:15:00,50.3,0.0,30.08,NNW,338,0.0,0.0,0,0.00,,---,0.00,VWS V14.01,2013-02-09 06:15:00,
2013-02-09 01:20:00,50.3,0.0,30.08,NNW,338,0.0,0.0,0,0.00,,---,0.00,VWS V14.01,2013-02-09 06:20:00,
2013-02-09 01:25:00,50.3,0.0,30.08,NNW,338,0.0,0.0,0,0.00,,---,0.00,VWS V14.01,2013-02-09 06:25:00,
2013-02-09 01:30:00,50.4,0.0,30.08,NNW,338,0.0,0.0,0,0.00,,---,0.00,VWS V14.01,2013-02-09 06:30:00,
2013-02-09 01:35:00,50.5,0.0,30.08,NNW,338,0.0,0.0,0,0.00,,---,0.00,VWS V14.01,2013-02-09 06:35:00,
2013-02-09 01:40:00,50.5,0.0,30.08,NNW,338,0.0,0.0,0,0.00,,---,0.00,VWS V14.01,2013-02-09 06:40:00,
2013-02-09 01:45:00,50.7,0.0,30.07,NNW,338,0.0,0.0,0,0.00,,---,0.00,VWS V14.01,2013-02-09 06:45:00,
2013-02-09 01:50:00,51.0,0.0,30.07,NNW,338,0.0,0.0,0,0.00,,---,0.00,VWS V14.01,2013-02-09 06:50:00,
2013-02-09 01:55:00,51.2,0.0,30.08,NNW,338,0.0,0.0,0,0.00,,---,0.00,VWS V14.01,2013-02-09 06:55:00,
2013-02-09 02:00:00,51.3,0.0,30.08,NNW,338,0.0,0.0,0,0.00,,---,0.00,VWS V14.01,2013-02-09 07:00:00,
2013-02-09 02:05:00,51.3,0.0,30.07,NNW,338,0.0,0.0,0,0.00,,---,0.00,VWS V14.01,2013-02-09 07:05:00,
2013-02-09 02:10:00,51.5,0.0,30.07,NNW,338,0.0,0.0,0,0.00,,---,0.00,VWS V14.01,2013-02-09 07:10:00,
2013-02-09 02:15:00,51.5,0.0,30.07,NNW,338,0.0,0.0,0,0.00,,---,0.00,VWS V14.01,2013-02-09 07:15:00,
2013-02-09 02:20:00,51.5,0.0,30.07,NNW,338,0.0,0.0,0,0.00,,---,0.00,VWS V14.01,2013-02-09 07:20:00,
2013-02-09 02:25:00,51.4,0.0,30.07,NNW,338,0.0,0.0,0,0.00,,---,0.00,VWS V14.01,2013-02-09 07:25:00,
2013-02-09 02:30:00,51.2,0.0,30.07,NNW,338,0.0,0.0,0,0.00,,---,0.00,VWS V14.01,2013-02-09 07:30:00,
2013-02-09 02:35:00,51.0,0.0,30.07,NNW,338,0.0,0.0,0,0.00,,---,0.00,VWS V14.01,2013-02-09 07:35:00,
2013-02-09 02:40:00,50.7,0.0,30.07,NNW,338,0.0,0.0,0,0.00,,---,0.00,VWS V14.01,2013-02-09 07:40:00,
2013-02-09 02:45:00,50.6,0.0,30.08,NNW,338,0.0,0.0,0,0.00,,---,0.00,VWS V14.01,2013-02-09 07:45:00,
2013-02-09 02:50:00,50.4,0.0,30.08,NNW,338,0.0,0.0,0,0.00,,---,0.00,VWS V14.01,2013-02-09 07:50:00,
2013-02-09 02:55:00,50.2,0.0,30.08,NNW,338,0.0,0.0,0,0.00,,---,0.00,VWS V14.01,2013-02-09 07:55:00,
2013-02-09 03:00:00,50.0,0.0,30.08,NNW,338,0.0,0.0,0,0.00,,---,0.00,VWS V14.01,2013-02-09 08:00:00,
2013-02-09 03:05:00,49.9,0.0,30.08,NNW,338,0.0,0.0,0,0.00,,---,0.00,VWS V14.01,2013-02-09 08:05:00,
2013-02-09 03:10:00,49.9,0.0,30.08,NNW,338,0.0,0.0,0,0.00,,---,0.00,VWS V14.01,2013-02-09 08:10:00,
2013-02-09 03:15:00,49.9,0.0,30.08,NNW,338,0.0,0.0,0,0.00,,---,0.00,VWS V14.01,2013-02-09 08:15:00,
2013-02-09 03:20:00,49.9,0.0,30.08,NNW,338,0.0,0.0,0,0.00,,---,0.00,VWS V14.01,2013-02-09 08:20:00,
2013-02-09 03:25:00,49.9,0.0,30.08,NNW,338,0.0,0.0,0,0.00,,---,0.00,VWS V14.01,2013-02-09 08:25:00,
2013-02-09 03:30:00,49.8,0.0,30.09,NNW,338,0.0,0.0,0,0.00,,---,0.00,VWS V14.01,2013-02-09 08:30:00,
2013-02-09 03:35:00,49.7,0.0,30.08,NNW,338,0.0,1.0,0,0.00,,---,0.00,VWS V14.01,2013-02-09 08:35:00,
2013-02-09 03:40:00,49.6,0.0,30.09,NNW,338,0.0,1.0,0,0.00,,---,0.00,VWS V14.01,2013-02-09 08:40:00,
2013-02-09 03:45:00,49.6,0.0,30.09,NNW,338,0.0,1.0,0,0.00,,---,0.00,VWS V14.01,2013-02-09 08:45:00,
2013-02-09 03:50:00,49.3,0.0,30.09,NNW,338,0.0,1.0,0,0.00,,---,0.00,VWS V14.01,2013-02-09 08:50:00,
2013-02-09 03:55:00,48.8,0.0,30.09,NNW,338,0.0,1.0,0,0.00,,---,0.00,VWS V14.01,2013-02-09 08:55:00,
2013-02-09 04:00:00,48.7,0.0,30.09,NNW,338,0.0,1.0,0,0.00,,---,0.00,VWS V14.01,2013-02-09 09:00:00,
2013-02-09 04:05:00,48.7,0.0,30.09,NNW,338,0.0,0.0,0,0.00,,---,0.00,VWS V14.01,2013-02-09 09:05:00,
2013-02-09 04:10:00,48.7,0.0,30.09,NNW,338,0.0,0.0,0,0.00,,---,0.00,VWS V14.01,2013-02-09 09:10:00,
2013-02-09 04:15:00,48.5,0.0,30.09,NNW,338,0.0,0.0,0,0.00,,---,0.00,VWS V14.01,2013-02-09 09:15:00,
2013-02-09 04:20:00,48.5,0.0,30.09,NNW,338,0.0,0.0,0,0.00,,---,0.00,VWS V14.01,2013-02-09 09:20:00,
2013-02-09 04:25:00,48.4,0.0,30.09,NNW,338,0.0,0.0,0,0.00,,---,0.00,VWS V14.01,2013-02-09 09:25:00,
2013-02-09 04:30:00,48.8,0.0,30.09,NNW,338,0.0,1.0,0,0.00,,---,0.00,VWS V14.01,2013-02-09 09:30:00,
2013-02-09 04:35:00,49.2,0.0,30.10,NNW,338,0.0,0.0,0,0.00,,---,0.00,VWS V14.01,2013-02-09 09:35:00,
2013-02-09 04:40:00,49.5,0.0,30.10,NNW,338,0.0,0.0,0,0.00,,---,0.00,VWS V14.01,2013-02-09 09:40:00,
2013-02-09 04:45:00,49.0,0.0,30.10,NNW,338,0.0,0.0,0,0.00,,---,0.00,VWS V14.01,2013-02-09 09:45:00,
2013-02-09 04:50:00,48.8,0.0,30.10,NNW,338,0.0,0.0,0,0.00,,---,0.00,VWS V14.01,2013-02-09 09:50:00,
2013-02-09 04:55:00,48.9,0.0,30.10,NNW,338,0.0,0.0,0,0.00,,---,0.00,VWS V14.01,2013-02-09 09:55:00,
2013-02-09 05:00:00,48.7,0.0,30.10,NNW,338,0.0,0.0,0,0.00,,---,0.00,VWS V14.01,2013-02-09 10:00:00,
2013-02-09 05:05:00,48.4,0.0,30.10,NNW,338,0.0,0.0,0,0.00,,---,0.00,VWS V14.01,2013-02-09 10:05:00,
2013-02-09 05:10:00,48.1,0.0,30.11,NNW,338,0.0,0.0,0,0.00,,---,0.00,VWS V14.01,2013-02-09 10:10:00,
2013-02-09 05:15:00,48.2,0.0,30.11,NNW,338,0.0,0.0,0,0.00,,---,0.00,VWS V14.01,2013-02-09 10:15:00,
2013-02-09 05:20:00,48.6,0.0,30.11,NNW,338,0.0,0.0,0,0.00,,---,0.00,VWS V14.01,2013-02-09 10:20:00,
2013-02-09 05:25:00,48.8,0.0,30.11,NNW,338,0.0,0.0,0,0.00,,---,0.00,VWS V14.01,2013-02-09 10:25:00,
2013-02-09 05:30:00,48.9,0.0,30.11,NNW,338,0.0,0.0,0,0.00,,---,0.00,VWS V14.01,2013-02-09 10:30:00,
2013-02-09 05:35:00,48.9,0.0,30.11,NNW,338,0.0,2.0,0,0.00,,---,0.00,VWS V14.01,2013-02-09 10:35:00,
2013-02-09 05:40:00,49.2,0.0,30.11,NNW,338,1.0,2.0,0,0.00,,---,0.00,VWS V14.01,2013-02-09 10:40:00,
2013-02-09 05:45:00,49.6,0.0,30.12,NNE,29,0.0,3.0,0,0.00,,---,0.00,VWS V14.01,2013-02-09 10:45:00,
2013-02-09 05:50:00,49.9,0.0,30.12,NNE,29,1.0,3.0,0,0.00,,---,0.00,VWS V14.01,2013-02-09 10:50:00,
2013-02-09 05:55:00,50.1,0.0,30.12,NNE,29,0.0,3.0,0,0.00,,---,0.00,VWS V14.01,2013-02-09 10:55:00,
2013-02-09 06:00:00,50.1,0.0,30.12,NNE,29,0.0,3.0,0,0.00,,---,0.00,VWS V14.01,2013-02-09 11:00:00,
2013-02-09 06:05:00,50.0,0.0,30.12,NNE,29,0.0,1.0,0,0.00,,---,0.00,VWS V14.01,2013-02-09 11:05:00,
2013-02-09 06:10:00,50.0,0.0,30.12,NNE,31,0.0,4.0,0,0.00,,---,0.00,VWS V14.01,2013-02-09 11:10:00,
2013-02-09 06:15:00,50.0,0.0,30.12,NNE,31,1.0,4.0,0,0.00,,---,0.00,VWS V14.01,2013-02-09 11:15:00,
2013-02-09 06:20:00,50.1,0.0,30.13,NNE,31,0.0,1.0,0,0.00,,---,0.00,VWS V14.01,2013-02-09 11:20:00,
2013-02-09 06:25:00,50.0,0.0,30.13,NNE,31,2.0,2.0,0,0.00,,---,0.00,VWS V14.01,2013-02-09 11:25:00,
2013-02-09 06:30:00,50.0,0.0,30.13,NNE,31,0.0,2.0,0,0.00,,---,0.00,VWS V14.01,2013-02-09 11:30:00,
2013-02-09 06:35:00,49.8,0.0,30.13,NNE,31,0.0,1.0,0,0.00,,---,0.00,VWS V14.01,2013-02-09 11:35:00,
2013-02-09 06:40:00,49.8,0.0,30.13,NNE,31,1.0,2.0,0,0.00,,---,0.00,VWS V14.01,2013-02-09 11:40:00,
2013-02-09 06:45:00,49.7,0.0,30.13,NNE,31,1.0,2.0,0,0.00,,---,0.00,VWS V14.01,2013-02-09 11:45:00,
2013-02-09 06:50:00,49.6,0.0,30.14,NNE,31,0.0,2.0,0,0.00,,---,0.00,VWS V14.01,2013-02-09 11:50:00,
2013-02-09 06:55:00,49.6,0.0,30.14,NNE,31,0.0,2.0,0,0.00,,---,0.00,VWS V14.01,2013-02-09 11:55:00,
2013-02-09 07:00:00,49.5,0.0,30.14,NNE,31,2.0,2.0,0,0.00,,---,0.00,VWS V14.01,2013-02-09 12:00:00,
2013-02-09 07:05:00,49.2,0.0,30.14,NNE,31,0.0,0.0,0,0.00,,---,0.00,VWS V14.01,2013-02-09 12:05:00,
2013-02-09 07:10:00,49.1,0.0,30.14,NNE,31,0.0,0.0,0,0.00,,---,0.00,VWS V14.01,2013-02-09 12:10:00,
2013-02-09 07:15:00,49.1,0.0,30.15,NNE,31,0.0,1.0,0,0.00,,---,0.00,VWS V14.01,2013-02-09 12:15:00,
2013-02-09 07:19:00,48.9,0.0,30.15,NNE,31,0.0,1.0,0,0.00,,---,0.00,VWS V14.01,2013-02-09 12:19:00,
2013-02-09 07:24:00,48.7,0.0,30.15,NNE,31,0.0,1.0,0,0.00,,---,0.00,VWS V14.01,2013-02-09 12:24:00,
2013-02-09 07:29:00,48.6,0.0,30.16,NNE,31,0.0,1.0,0,0.00,,---,0.00,VWS V14.01,2013-02-09 12:29:00,
2013-02-09 07:34:00,48.5,0.0,30.16,NNE,31,1.0,1.0,0,0.00,,---,0.00,VWS V14.01,2013-02-09 12:34:00,
2013-02-09 07:39:00,48.7,0.0,30.16,NNE,31,2.0,2.0,0,0.00,,---,0.00,VWS V14.01,2013-02-09 12:39:00,
2013-02-09 07:44:00,49.0,0.0,30.16,NNE,31,0.0,2.0,0,0.00,,---,0.00,VWS V14.01,2013-02-09 12:44:00,
2013-02-09 07:49:00,49.1,0.0,30.16,NE,43,0.0,2.0,0,0.00,,---,0.00,VWS V14.01,2013-02-09 12:49:00,
2013-02-09 07:54:00,49.2,0.0,30.16,NE,43,0.0,2.0,0,0.00,,---,0.00,VWS V14.01,2013-02-09 12:54:00,
2013-02-09 07:59:00,49.5,0.0,30.17,NE,43,0.0,2.0,0,0.00,,---,0.00,VWS V14.01,2013-02-09 12:59:00,
2013-02-09 08:04:00,50.1,0.0,30.17,NE,43,0.0,0.0,0,0.00,,---,0.00,VWS V14.01,2013-02-09 13:04:00,
2013-02-09 08:09:00,50.7,0.0,30.17,NE,43,0.0,2.0,0,0.00,,---,0.00,VWS V14.01,2013-02-09 13:09:00,
2013-02-09 08:14:00,51.1,0.0,30.17,NE,43,2.0,2.0,0,0.00,,---,0.00,VWS V14.01,2013-02-09 13:14:00,
2013-02-09 08:19:00,51.3,0.0,30.17,NE,46,2.0,4.0,0,0.00,,---,0.00,VWS V14.01,2013-02-09 13:19:00,
2013-02-09 08:24:00,51.5,0.0,30.18,ENE,66,2.0,4.0,0,0.00,,---,0.00,VWS V14.01,2013-02-09 13:24:00,
2013-02-09 08:29:00,51.7,0.0,30.18,NE,54,1.0,5.0,0,0.00,,---,0.00,VWS V14.01,2013-02-09 13:29:00,
2013-02-09 08:34:00,52.0,0.0,30.18,NE,48,5.0,5.0,0,0.00,,---,0.00,VWS V14.01,2013-02-09 13:34:00,
2013-02-09 08:39:00,52.1,0.0,30.18,ENE,57,4.0,7.0,0,0.00,,---,0.00,VWS V14.01,2013-02-09 13:39:00,
2013-02-09 08:44:00,52.3,0.0,30.18,NE,49,3.0,8.0,0,0.00,,---,0.00,VWS V14.01,2013-02-09 13:44:00,
2013-02-09 08:49:00,52.4,0.0,30.18,ENE,74,0.0,9.0,0,0.00,,---,0.00,VWS V14.01,2013-02-09 13:49:00,
2013-02-09 08:54:00,52.9,0.0,30.18,NE,55,5.0,9.0,0,0.00,,---,0.00,VWS V14.01,2013-02-09 13:54:00,
2013-02-09 08:59:00,53.1,0.0,30.18,NNE,27,7.0,9.0,0,0.00,,---,0.00,VWS V14.01,2013-02-09 13:59:00,
2013-02-09 09:04:00,53.6,0.0,30.19,NNE,32,6.0,10.0,0,0.00,,---,0.00,VWS V14.01,2013-02-09 14:04:00,
2013-02-09 09:09:00,54.1,0.0,30.19,NNE,22,7.0,10.0,0,0.00,,---,0.00,VWS V14.01,2013-02-09 14:09:00,
2013-02-09 09:14:00,54.4,0.0,30.19,ENE,68,2.0,10.0,0,0.00,,---,0.00,VWS V14.01,2013-02-09 14:14:00,
2013-02-09 09:19:00,54.9,0.0,30.19,ENE,74,1.0,10.0,0,0.00,,---,0.00,VWS V14.01,2013-02-09 14:19:00,
2013-02-09 09:24:00,55.5,0.0,30.19,NE,45,5.0,10.0,0,0.00,,---,0.00,VWS V14.01,2013-02-09 14:24:00,
2013-02-09 09:29:00,55.9,0.0,30.19,SSE,155,4.0,10.0,0,0.00,,---,0.00,VWS V14.01,2013-02-09 14:29:00,
2013-02-09 09:34:00,56.4,0.0,30.19,NE,40,2.0,8.0,0,0.00,,---,0.00,VWS V14.01,2013-02-09 14:34:00,
2013-02-09 09:39:00,57.0,0.0,30.19,NE,39,5.0,8.0,0,0.00,,---,0.00,VWS V14.01,2013-02-09 14:39:00,
2013-02-09 09:44:00,57.6,0.0,30.20,East,90,2.0,8.0,0,0.00,,---,0.00,VWS V14.01,2013-02-09 14:44:00,
2013-02-09 09:49:00,58.4,0.0,30.19,ESE,119,0.0,8.0,0,0.00,,---,0.00,VWS V14.01,2013-02-09 14:49:00,
2013-02-09 09:54:00,58.9,0.0,30.20,ENE,67,5.0,8.0,0,0.00,,---,0.00,VWS V14.01,2013-02-09 14:54:00,
2013-02-09 09:59:00,59.2,-21.7,30.20,NE,35,5.0,10.0,3,0.00,,---,0.00,VWS V14.01,2013-02-09 14:59:00,
2013-02-09 10:04:00,59.5,-4.7,30.20,North,5,1.0,7.0,7,0.00,,---,0.00,VWS V14.01,2013-02-09 15:04:00,
2013-02-09 10:09:00,59.9,-4.3,30.20,East,95,2.0,9.0,7,0.00,,---,0.00,VWS V14.01,2013-02-09 15:09:00,
2013-02-09 10:14:00,60.4,18.0,30.19,NE,50,5.0,10.0,19,0.00,,---,0.00,VWS V14.01,2013-02-09 15:14:00,
2013-02-09 10:19:00,60.8,26.6,30.19,SSE,165,5.0,10.0,27,0.00,,---,0.00,VWS V14.01,2013-02-09 15:19:00,
2013-02-09 10:24:00,61.2,32.6,30.19,ESE,118,4.0,10.0,34,0.00,,---,0.00,VWS V14.01,2013-02-09 15:24:00,
2013-02-09 10:29:00,61.6,29.1,30.20,ENE,63,5.0,10.0,29,0.00,,---,0.00,VWS V14.01,2013-02-09 15:29:00,
2013-02-09 10:34:00,61.8,34.6,30.20,NE,34,5.0,10.0,36,0.00,,---,0.00,VWS V14.01,2013-02-09 15:34:00,
2013-02-09 10:39:00,62.3,30.5,30.20,ENE,74,1.0,10.0,30,0.00,,---,0.00,VWS V14.01,2013-02-09 15:39:00,
2013-02-09 10:44:00,62.7,37.4,30.20,NNE,26,9.0,10.0,39,0.00,,---,0.00,VWS V14.01,2013-02-09 15:44:00,
2013-02-09 10:49:00,63.0,39.0,30.19,North,355,3.0,10.0,41,0.00,,---,0.00,VWS V14.01,2013-02-09 15:49:00,
2013-02-09 10:54:00,63.5,41.8,30.20,ESE,106,2.0,10.0,45,0.00,,---,0.00,VWS V14.01,2013-02-09 15:54:00,
2013-02-09 10:59:00,64.0,43.9,30.19,NNE,24,6.0,10.0,48,0.00,,---,0.00,VWS V14.01,2013-02-09 15:59:00,
2013-02-09 11:04:00,64.4,45.9,30.19,South,169,6.0,8.0,51,0.00,,---,0.00,VWS V14.01,2013-02-09 16:04:00,
2013-02-09 11:09:00,64.6,47.1,30.19,SE,146,4.0,10.0,53,0.00,,---,0.00,VWS V14.01,2013-02-09 16:09:00,
2013-02-09 11:14:00,64.7,48.7,30.19,East,79,2.0,10.0,56,0.00,,---,0.00,VWS V14.01,2013-02-09 16:14:00,
2013-02-09 11:19:00,64.8,47.8,30.19,East,88,1.0,10.0,54,0.00,,---,0.00,VWS V14.01,2013-02-09 16:19:00,
2013-02-09 11:24:00,65.1,48.1,30.19,NE,34,5.0,10.0,54,0.00,,---,0.00,VWS V14.01,2013-02-09 16:24:00,
2013-02-09 11:29:00,65.3,49.7,30.19,ENE,63,4.0,10.0,57,0.00,,---,0.00,VWS V14.01,2013-02-09 16:29:00,
2013-02-09 11:34:00,65.6,50.0,30.19,ESE,104,7.0,10.0,57,0.00,,---,0.00,VWS V14.01,2013-02-09 16:34:00,
2013-02-09 11:39:00,66.0,49.4,30.19,North,360,2.0,10.0,55,0.00,,---,0.00,VWS V14.01,2013-02-09 16:39:00,
2013-02-09 11:44:00,66.1,50.9,30.19,NNE,17,3.0,10.0,58,0.00,,---,0.00,VWS V14.01,2013-02-09 16:44:00,
2013-02-09 11:49:00,66.0,50.8,30.18,SSE,155,5.0,11.0,58,0.00,,---,0.00,VWS V14.01,2013-02-09 16:49:00,
2013-02-09 11:54:00,66.1,50.9,30.18,East,84,5.0,11.0,58,0.00,,---,0.00,VWS V14.01,2013-02-09 16:54:00,
2013-02-09 11:59:00,66.5,51.8,30.18,South,178,5.0,11.0,59,0.00,,---,0.00,VWS V14.01,2013-02-09 16:59:00,
2013-02-09 12:04:00,66.8,52.5,30.18,North,11,2.0,7.0,60,0.00,,---,0.00,VWS V14.01,2013-02-09 17:04:00,
2013-02-09 12:09:00,67.1,52.8,30.18,East,79,1.0,7.0,60,0.00,,---,0.00,VWS V14.01,2013-02-09 17:09:00,
2013-02-09 12:14:00,67.7,53.3,30.18,NNE,33,5.0,7.0,60,0.00,,---,0.00,VWS V14.01,2013-02-09 17:14:00,
2013-02-09 12:19:00,68.2,54.2,30.17,East,82,7.0,10.0,61,0.00,,---,0.00,VWS V14.01,2013-02-09 17:19:00,
2013-02-09 12:24:00,67.9,53.5,30.17,South,169,1.0,10.0,60,0.00,,---,0.00,VWS V14.01,2013-02-09 17:24:00,
2013-02-09 12:29:00,68.0,53.6,30.17,South,185,5.0,10.0,60,0.00,,---,0.00,VWS V14.01,2013-02-09 17:29:00,
2013-02-09 12:34:00,68.1,54.2,30.17,NE,40,2.0,11.0,61,0.00,,---,0.00,VWS V14.01,2013-02-09 17:34:00,
2013-02-09 12:39:00,68.3,53.9,30.17,NE,53,6.0,11.0,60,0.00,,---,0.00,VWS V14.01,2013-02-09 17:39:00,
2013-02-09 12:44:00,68.4,54.0,30.17,NE,40,9.0,11.0,60,0.00,,---,0.00,VWS V14.01,2013-02-09 17:44:00,
2013-02-09 12:49:00,68.5,54.1,30.17,NNE,30,6.0,11.0,60,0.00,,---,0.00,VWS V14.01,2013-02-09 17:49:00,
2013-02-09 12:54:00,68.7,54.3,30.16,SSE,153,1.0,11.0,60,0.00,,---,0.00,VWS V14.01,2013-02-09 17:54:00,
2013-02-09 12:59:00,68.8,54.4,30.16,ENE,59,6.0,11.0,60,0.00,,---,0.00,VWS V14.01,2013-02-09 17:59:00,
2013-02-09 13:04:00,69.2,55.2,30.16,NE,34,3.0,8.0,61,0.00,,---,0.00,VWS V14.01,2013-02-09 18:04:00,
2013-02-09 13:09:00,69.3,54.8,30.15,NNE,26,8.0,9.0,60,0.00,,---,0.00,VWS V14.01,2013-02-09 18:09:00,
2013-02-09 13:14:00,69.2,54.3,30.15,SSE,163,4.0,9.0,59,0.00,,---,0.00,VWS V14.01,2013-02-09 18:14:00,
2013-02-09 13:19:00,69.3,54.4,30.15,SE,134,4.0,10.0,59,0.00,,---,0.00,VWS V14.01,2013-02-09 18:19:00,
2013-02-09 13:24:00,69.5,55.0,30.15,South,177,3.0,10.0,60,0.00,,---,0.00,VWS V14.01,2013-02-09 18:24:00,
2013-02-09 13:29:00,70.0,55.5,30.15,South,180,9.0,12.0,60,0.00,,---,0.00,VWS V14.01,2013-02-09 18:29:00,
2013-02-09 13:34:00,70.2,54.8,30.14,East,94,5.0,10.0,58,0.00,,---,0.00,VWS V14.01,2013-02-09 18:34:00,
2013-02-09 13:39:00,70.2,55.2,30.14,ENE,70,10.0,15.0,59,0.00,,---,0.00,VWS V14.01,2013-02-09 18:39:00,
2013-02-09 13:44:00,70.2,55.2,30.14,SSE,167,1.0,15.0,59,0.00,,---,0.00,VWS V14.01,2013-02-09 18:44:00,
2013-02-09 13:49:00,70.4,55.4,30.14,ENE,58,6.0,15.0,59,0.00,,---,0.00,VWS V14.01,2013-02-09 18:49:00,
2013-02-09 13:54:00,70.5,55.5,30.14,SSE,157,1.0,15.0,59,0.00,,---,0.00,VWS V14.01,2013-02-09 18:54:00,
2013-02-09 13:59:00,70.7,55.2,30.14,North,10,5.0,15.0,58,0.00,,---,0.00,VWS V14.01,2013-02-09 18:59:00,
2013-02-09 14:04:00,71.0,55.0,30.14,ENE,78,4.0,9.0,57,0.00,,---,0.00,VWS V14.01,2013-02-09 19:04:00,
2013-02-09 14:09:00,71.0,55.5,30.13,ESE,117,7.0,10.0,58,0.00,,---,0.00,VWS V14.01,2013-02-09 19:09:00,
2013-02-09 14:14:00,71.3,55.8,30.13,ESE,118,2.0,11.0,58,0.00,,---,0.00,VWS V14.01,2013-02-09 19:14:00,
2013-02-09 14:19:00,71.2,55.7,30.13,ENE,66,7.0,11.0,58,0.00,,---,0.00,VWS V14.01,2013-02-09 19:19:00,
2013-02-09 14:24:00,71.6,56.1,30.13,SSE,154,1.0,11.0,58,0.00,,---,0.00,VWS V14.01,2013-02-09 19:24:00,
2013-02-09 14:29:00,71.9,56.3,30.13,East,98,3.0,11.0,58,0.00,,---,0.00,VWS V14.01,2013-02-09 19:29:00,
2013-02-09 14:34:00,71.7,55.7,30.13,ESE,121,4.0,8.0,57,0.00,,---,0.00,VWS V14.01,2013-02-09 19:34:00,
2013-02-09 14:39:00,71.8,55.8,30.13,East,86,7.0,9.0,57,0.00,,---,0.00,VWS V14.01,2013-02-09 19:39:00,
2013-02-09 14:44:00,71.7,55.7,30.13,ENE,67,0.0,9.0,57,0.00,,---,0.00,VWS V14.01,2013-02-09 19:44:00,
2013-02-09 14:49:00,71.8,55.8,30.12,ENE,59,5.0,9.0,57,0.00,,---,0.00,VWS V14.01,2013-02-09 19:49:00,
2013-02-09 14:54:00,71.9,55.9,30.12,NNE,22,6.0,10.0,57,0.00,,---,0.00,VWS V14.01,2013-02-09 19:54:00,
2013-02-09 14:59:00,71.8,55.8,30.12,SSE,156,3.0,10.0,57,0.00,,---,0.00,VWS V14.01,2013-02-09 19:59:00,
2013-02-09 15:04:00,71.9,56.3,30.12,ESE,107,1.0,9.0,58,0.00,,---,0.00,VWS V14.01,2013-02-09 20:04:00,
2013-02-09 15:09:00,72.0,56.0,30.12,NNE,32,6.0,10.0,57,0.00,,---,0.00,VWS V14.01,2013-02-09 20:09:00,
2013-02-09 15:14:00,72.1,56.0,30.12,South,187,4.0,10.0,57,0.00,,---,0.00,VWS V14.01,2013-02-09 20:14:00,
2013-02-09 15:20:00,72.6,56.5,30.12,ENE,60,2.0,10.0,57,0.00,,---,0.00,VWS V14.01,2013-02-09 20:20:00,
2013-02-09 15:25:00,72.6,56.0,30.12,East,80,2.0,10.0,56,0.00,,---,0.00,VWS V14.01,2013-02-09 20:25:00,
2013-02-09 15:30:00,72.4,55.8,30.12,SSE,154,3.0,10.0,56,0.00,,---,0.00,VWS V14.01,2013-02-09 20:30:00,
2013-02-09 15:35:00,72.3,56.2,30.12,ENE,58,0.0,7.0,57,0.00,,---,0.00,VWS V14.01,2013-02-09 20:35:00,
2013-02-09 15:40:00,72.6,56.5,30.12,SE,146,7.0,9.0,57,0.00,,---,0.00,VWS V14.01,2013-02-09 20:40:00,
2013-02-09 15:45:00,72.4,56.3,30.12,East,85,1.0,9.0,57,0.00,,---,0.00,VWS V14.01,2013-02-09 20:45:00,
2013-02-09 15:50:00,72.2,56.1,30.12,East,85,4.0,11.0,57,0.00,,---,0.00,VWS V14.01,2013-02-09 20:50:00,
2013-02-09 15:55:00,72.4,56.3,30.12,SE,138,3.0,11.0,57,0.00,,---,0.00,VWS V14.01,2013-02-09 20:55:00,
2013-02-09 16:00:00,72.2,55.7,30.12,ESE,117,5.0,12.0,56,0.00,,---,0.00,VWS V14.01,2013-02-09 21:00:00,
2013-02-09 16:05:00,72.0,56.0,30.12,NE,38,0.0,8.0,57,0.00,,---,0.00,VWS V14.01,2013-02-09 21:05:00,
2013-02-09 16:09:00,72.2,56.1,30.12,ENE,58,6.0,8.0,57,0.00,,---,0.00,VWS V14.01,2013-02-09 21:09:00,
2013-02-09 16:14:00,72.3,56.2,30.12,NE,46,4.0,10.0,57,0.00,,---,0.00,VWS V14.01,2013-02-09 21:14:00,
2013-02-09 16:19:00,72.5,55.9,30.12,NNE,24,5.0,10.0,56,0.00,,---,0.00,VWS V14.01,2013-02-09 21:19:00,
2013-02-09 16:24:00,72.4,56.3,30.12,NNE,25,2.0,10.0,57,0.00,,---,0.00,VWS V14.01,2013-02-09 21:24:00,
2013-02-09 16:30:00,72.3,55.7,30.12,SSE,167,6.0,10.0,56,0.00,,---,0.00,VWS V14.01,2013-02-09 21:30:00,
2013-02-09 16:34:00,71.8,55.3,30.12,SE,131,2.0,9.0,56,0.00,,---,0.00,VWS V14.01,2013-02-09 21:34:00,
2013-02-09 16:40:00,71.4,55.4,30.12,ENE,74,7.0,9.0,57,0.00,,---,0.00,VWS V14.01,2013-02-09 21:40:00,
2013-02-09 16:45:00,70.9,54.9,30.12,East,92,0.0,9.0,57,0.00,,---,0.00,VWS V14.01,2013-02-09 21:45:00,
2013-02-09 16:50:00,71.0,55.5,30.12,ENE,65,11.0,11.0,58,0.00,,---,0.00,VWS V14.01,2013-02-09 21:50:00,
2013-02-09 16:55:00,71.5,55.5,30.13,SE,143,8.0,11.0,57,0.00,,---,0.00,VWS V14.01,2013-02-09 21:55:00,
2013-02-09 17:00:00,71.3,55.3,30.13,NE,54,4.0,11.0,57,0.00,,---,0.00,VWS V14.01,2013-02-09 22:00:00,
2013-02-09 17:05:00,71.4,55.9,30.13,ESE,107,2.0,7.0,58,0.00,,---,0.00,VWS V14.01,2013-02-09 22:05:00,
2013-02-09 17:10:00,71.4,55.4,30.13,NE,51,5.0,8.0,57,0.00,,---,0.00,VWS V14.01,2013-02-09 22:10:00,
2013-02-09 17:15:00,71.3,55.3,30.13,NE,55,5.0,8.0,57,0.00,,---,0.00,VWS V14.01,2013-02-09 22:15:00,
2013-02-09 17:20:00,71.3,54.8,30.13,SE,130,7.0,9.0,56,0.00,,---,0.00,VWS V14.01,2013-02-09 22:20:00,
2013-02-09 17:25:00,71.0,55.0,30.13,SE,128,2.0,9.0,57,0.00,,---,0.00,VWS V14.01,2013-02-09 22:25:00,
2013-02-09 17:30:00,70.8,55.8,30.13,ESE,121,5.0,10.0,59,0.00,,---,0.00,VWS V14.01,2013-02-09 22:30:00,
2013-02-09 17:35:00,70.4,55.9,30.13,ENE,61,2.0,8.0,60,0.00,,---,0.00,VWS V14.01,2013-02-09 22:35:00,
2013-02-09 17:40:00,69.9,55.4,30.13,ENE,78,1.0,8.0,60,0.00,,---,0.00,VWS V14.01,2013-02-09 22:40:00,
2013-02-09 17:45:00,69.4,55.4,30.13,NNW,348,1.0,8.0,61,0.00,,---,0.00,VWS V14.01,2013-02-09 22:45:00,
2013-02-09 17:50:00,68.9,54.9,30.13,East,79,2.0,8.0,61,0.00,,---,0.00,VWS V14.01,2013-02-09 22:50:00,
2013-02-09 17:55:00,68.6,54.6,30.13,NE,44,2.0,8.0,61,0.00,,---,0.00,VWS V14.01,2013-02-09 22:55:00,
2013-02-09 18:00:00,68.4,54.9,30.14,ENE,67,2.0,8.0,62,0.00,,---,0.00,VWS V14.01,2013-02-09 23:00:00,
2013-02-09 18:05:00,68.1,54.6,30.13,SSE,158,5.0,7.0,62,0.00,,---,0.00,VWS V14.01,2013-02-09 23:05:00,
2013-02-09 18:10:00,67.8,54.3,30.13,East,96,6.0,7.0,62,0.00,,---,0.00,VWS V14.01,2013-02-09 23:10:00,
2013-02-09 18:15:00,67.5,54.5,30.14,East,88,0.0,7.0,63,0.00,,---,0.00,VWS V14.01,2013-02-09 23:15:00,
2013-02-09 18:20:00,67.2,54.2,30.14,SE,124,3.0,7.0,63,0.00,,---,0.00,VWS V14.01,2013-02-09 23:20:00,
2013-02-09 18:25:00,66.8,54.2,30.14,SE,142,6.0,8.0,64,0.00,,---,0.00,VWS V14.01,2013-02-09 23:25:00,
2013-02-09 18:30:00,66.5,54.0,30.13,ESE,111,4.0,8.0,64,0.00,,---,0.00,VWS V14.01,2013-02-09 23:30:00,
2013-02-09 18:35:00,66.2,54.1,30.14,SE,134,0.0,4.0,65,0.00,,---,0.00,VWS V14.01,2013-02-09 23:35:00,
2013-02-09 18:40:00,66.0,53.9,30.14,ESE,103,5.0,6.0,65,0.00,,---,0.00,VWS V14.01,2013-02-09 23:40:00,
2013-02-09 18:45:00,65.7,53.6,30.14,SSE,163,1.0,9.0,65,0.00,,---,0.00,VWS V14.01,2013-02-09 23:45:00,
2013-02-09 18:50:00,65.5,53.4,30.14,South,178,1.0,9.0,65,0.00,,---,0.00,VWS V14.01,2013-02-09 23:50:00,
2013-02-09 18:55:00,65.2,53.6,30.14,ESE,123,0.0,9.0,66,0.00,,---,0.00,VWS V14.01,2013-02-09 23:55:00,
2013-02-09 19:00:00,64.9,53.3,30.14,East,82,1.0,9.0,66,0.00,,---,0.00,VWS V14.01,2013-02-10 00:00:00,
2013-02-09 19:05:00,64.7,53.1,30.14,SE,128,1.0,6.0,66,0.00,,---,0.00,VWS V14.01,2013-02-10 00:05:00,
2013-02-09 19:10:00,64.4,52.8,30.15,SE,125,8.0,8.0,66,0.00,,---,0.00,VWS V14.01,2013-02-10 00:10:00,
2013-02-09 19:15:00,64.2,52.6,30.15,ESE,113,2.0,8.0,66,0.00,,---,0.00,VWS V14.01,2013-02-10 00:15:00,
2013-02-09 19:20:00,64.0,52.4,30.15,South,175,4.0,8.0,66,0.00,,---,0.00,VWS V14.01,2013-02-10 00:20:00,
2013-02-09 19:25:00,63.8,52.7,30.15,ENE,66,1.0,8.0,67,0.00,,---,0.00,VWS V14.01,2013-02-10 00:25:00,
2013-02-09 19:30:00,63.6,52.5,30.15,ESE,104,2.0,8.0,67,0.00,,---,0.00,VWS V14.01,2013-02-10 00:30:00,
2013-02-09 19:35:00,63.4,52.3,30.15,East,79,5.0,5.0,67,0.00,,---,0.00,VWS V14.01,2013-02-10 00:35:00,
2013-02-09 19:40:00,63.3,52.2,30.16,East,86,1.0,6.0,67,0.00,,---,0.00,VWS V14.01,2013-02-10 00:40:00,
2013-02-09 19:45:00,63.1,52.0,30.16,ESE,119,6.0,7.0,67,0.00,,---,0.00,VWS V14.01,2013-02-10 00:45:00,
2013-02-09 19:50:00,63.0,51.9,30.16,ESE,103,1.0,7.0,67,0.00,,---,0.00,VWS V14.01,2013-02-10 00:50:00,
2013-02-09 19:55:00,62.8,51.7,30.16,ENE,69,5.0,9.0,67,0.00,,---,0.00,VWS V14.01,2013-02-10 00:55:00,
2013-02-09 20:00:00,62.6,51.5,30.16,East,81,3.0,9.0,67,0.00,,---,0.00,VWS V14.01,2013-02-10 01:00:00,
2013-02-09 20:05:00,62.4,51.3,30.16,SE,140,1.0,6.0,67,0.00,,---,0.00,VWS V14.01,2013-02-10 01:05:00,
2013-02-09 20:10:00,62.2,51.1,30.16,East,79,1.0,7.0,67,0.00,,---,0.00,VWS V14.01,2013-02-10 01:10:00,
2013-02-09 20:15:00,62.0,50.9,30.17,ESE,115,2.0,7.0,67,0.00,,---,0.00,VWS V14.01,2013-02-10 01:15:00,
2013-02-09 20:20:00,61.7,50.6,30.17,South,184,2.0,8.0,67,0.00,,---,0.00,VWS V14.01,2013-02-10 01:20:00,
2013-02-09 20:25:00,61.6,50.5,30.17,NE,54,7.0,8.0,67,0.00,,---,0.00,VWS V14.01,2013-02-10 01:25:00,
2013-02-09 20:30:00,61.4,50.4,30.17,ENE,69,6.0,9.0,67,0.00,,---,0.00,VWS V14.01,2013-02-10 01:30:00,
2013-02-09 20:35:00,61.2,49.8,30.18,ESE,113,0.0,8.0,66,0.00,,---,0.00,VWS V14.01,2013-02-10 01:35:00,
2013-02-09 20:40:00,61.0,49.6,30.18,ENE,63,2.0,8.0,66,0.00,,---,0.00,VWS V14.01,2013-02-10 01:40:00,
2013-02-09 20:45:00,60.8,49.4,30.18,ESE,107,1.0,8.0,66,0.00,,---,0.00,VWS V14.01,2013-02-10 01:45:00,
2013-02-09 20:50:00,60.5,48.7,30.18,ESE,113,0.0,8.0,65,0.00,,---,0.00,VWS V14.01,2013-02-10 01:50:00,
2013-02-09 20:55:00,60.3,47.7,30.18,ESE,116,0.0,8.0,63,0.00,,---,0.00,VWS V14.01,2013-02-10 01:55:00,
2013-02-09 21:00:00,60.1,47.5,30.18,ESE,109,0.0,8.0,63,0.00,,---,0.00,VWS V14.01,2013-02-10 02:00:00,
2013-02-09 21:05:00,59.9,46.9,30.19,ESE,104,1.0,5.0,62,0.00,,---,0.00,VWS V14.01,2013-02-10 02:05:00,
2013-02-09 21:10:00,59.7,46.2,30.19,NE,37,0.0,5.0,61,0.00,,---,0.00,VWS V14.01,2013-02-10 02:10:00,
2013-02-09 21:15:00,59.5,45.6,30.19,NE,37,0.0,5.0,60,0.00,,---,0.00,VWS V14.01,2013-02-10 02:15:00,
2013-02-09 21:20:00,59.3,45.4,30.19,ENE,59,0.0,5.0,60,0.00,,---,0.00,VWS V14.01,2013-02-10 02:20:00,
2013-02-09 21:25:00,59.1,44.8,30.19,ENE,67,0.0,5.0,59,0.00,,---,0.00,VWS V14.01,2013-02-10 02:25:00,
2013-02-09 21:30:00,58.8,44.5,30.19,NE,55,0.0,5.0,59,0.00,,---,0.00,VWS V14.01,2013-02-10 02:30:00,
2013-02-09 21:35:00,58.6,43.9,30.20,SE,145,0.0,2.0,58,0.00,,---,0.00,VWS V14.01,2013-02-10 02:35:00,
2013-02-09 21:40:00,58.4,43.2,30.20,ENE,62,0.0,2.0,57,0.00,,---,0.00,VWS V14.01,2013-02-10 02:40:00,
2013-02-09 21:45:00,58.2,43.1,30.19,ENE,62,0.0,2.0,57,0.00,,---,0.00,VWS V14.01,2013-02-10 02:45:00,
2013-02-09 21:50:00,57.9,42.8,30.20,ENE,62,0.0,2.0,57,0.00,,---,0.00,VWS V14.01,2013-02-10 02:50:00,
2013-02-09 21:55:00,57.6,42.0,30.19,ENE,62,0.0,2.0,56,0.00,,---,0.00,VWS V14.01,2013-02-10 02:55:00,
2013-02-09 22:00:00,57.4,41.4,30.20,ENE,62,0.0,2.0,55,0.00,,---,0.00,VWS V14.01,2013-02-10 03:00:00,
2013-02-09 22:05:00,57.1,40.6,30.19,ENE,64,0.0,2.0,54,0.00,,---,0.00,VWS V14.01,2013-02-10 03:05:00,
2013-02-09 22:10:00,56.9,40.0,30.20,ENE,64,0.0,2.0,53,0.00,,---,0.00,VWS V14.01,2013-02-10 03:10:00,
2013-02-09 22:15:00,56.8,39.4,30.20,ENE,64,0.0,2.0,52,0.00,,---,0.00,VWS V14.01,2013-02-10 03:15:00,
2013-02-09 22:20:00,56.6,38.2,30.20,ENE,64,0.0,2.0,50,0.00,,---,0.00,VWS V14.01,2013-02-10 03:20:00,
2013-02-09 22:25:00,56.4,38.0,30.20,ENE,64,0.0,2.0,50,0.00,,---,0.00,VWS V14.01,2013-02-10 03:25:00,
2013-02-09 22:30:00,56.2,36.8,30.20,ENE,64,0.0,2.0,48,0.00,,---,0.00,VWS V14.01,2013-02-10 03:30:00,
2013-02-09 22:35:00,56.0,36.1,30.20,ENE,64,0.0,0.0,47,0.00,,---,0.00,VWS V14.01,2013-02-10 03:35:00,
2013-02-09 22:40:00,55.7,34.1,30.20,ENE,64,0.0,0.0,44,0.00,,---,0.00,VWS V14.01,2013-02-10 03:40:00,
2013-02-09 22:45:00,55.4,31.5,30.19,ENE,64,0.0,0.0,40,0.00,,---,0.00,VWS V14.01,2013-02-10 03:45:00,
2013-02-09 22:50:00,55.2,28.7,30.20,ENE,64,0.0,1.0,36,0.00,,---,0.00,VWS V14.01,2013-02-10 03:50:00,
2013-02-09 22:55:00,55.0,25.7,30.20,ENE,64,1.0,1.0,32,0.00,,---,0.00,VWS V14.01,2013-02-10 03:55:00,
2013-02-09 23:00:00,54.9,21.6,30.20,ENE,64,0.0,1.0,27,0.00,,---,0.00,VWS V14.01,2013-02-10 04:00:00,
2013-02-09 23:05:00,54.9,18.8,30.20,ENE,64,0.0,4.0,24,0.00,,---,0.00,VWS V14.01,2013-02-10 04:05:00,
2013-02-09 23:10:00,54.9,19.8,30.20,ENE,64,0.0,4.0,25,0.00,,---,0.00,VWS V14.01,2013-02-10 04:10:00,
2013-02-09 23:15:00,54.9,19.8,30.20,ENE,64,0.0,4.0,25,0.00,,---,0.00,VWS V14.01,2013-02-10 04:15:00,
2013-02-09 23:20:00,54.8,19.7,30.20,ENE,64,0.0,4.0,25,0.00,,---,0.00,VWS V14.01,2013-02-10 04:20:00,
2013-02-09 23:25:00,54.6,19.5,30.20,ENE,64,0.0,4.0,25,0.00,,---,0.00,VWS V14.01,2013-02-10 04:25:00,
2013-02-09 23:30:00,54.5,18.5,30.20,ENE,64,0.0,4.0,24,0.00,,---,0.00,VWS V14.01,2013-02-10 04:30:00,
2013-02-09 23:35:00,54.3,9.1,30.20,ENE,64,0.0,1.0,16,0.00,,---,0.00,VWS V14.01,2013-02-10 04:35:00,
2013-02-09 23:40:00,54.1,8.9,30.20,ENE,64,0.0,1.0,16,0.00,,---,0.00,VWS V14.01,2013-02-10 04:40:00,
2013-02-09 23:45:00,54.0,5.9,30.20,ENE,64,0.0,1.0,14,0.00,,---,0.00,VWS V14.01,2013-02-10 04:45:00,
2013-02-09 23:50:00,53.7,2.3,30.20,ENE,64,0.0,1.0,12,0.00,,---,0.00,VWS V14.01,2013-02-10 04:50:00,
2013-02-09 23:55:00,53.3,-1.9,30.20,ENE,64,0.0,1.0,10,0.00,,---,0.00,VWS V14.01,2013-02-10 04:55:00,